Regional Weather Roundup
Issued by NWS

Home | Current Version | Previous Version | Graphics & Text | Print | Product List | Glossary On
Versions: 1 2 3 4 5 6 7 8 9 10 11 12 13 14 15 16 17 18 19 20 21 22 23 24 25 26 27 28 29 30 31 32 33 34 35 36 37 38 39 40 41 42 43 44 45 46 47 48 49 50
202
ASUS45 KPSR 300810
RWRAZ

ARIZONA HOURLY REGIONAL WEATHER ROUNDUP
NATIONAL WEATHER SERVICE PHOENIX AZ
100 AM MST SAT APR 30 2016

NOTE: FAIR INDICATES FEW OR NO CLOUDS BELOW 12,000 FEET WITH NO
SIGNIFICANT WEATHER AND/OR OBSTRUCTIONS TO VISIBILITY.

AZZ001>003-036-300900-
NORTHWEST ARIZONA

CITY           SKY/WX    TMP DP  RH WIND       PRES   REMARKS
BULLHEAD CITY  PTCLDY    73  32  21 W13       29.67F
KINGMAN        PTCLDY    59  36  42 S12       29.75F
$$

AZZ004>008-015-016-018-300900-
NORTH CENTRAL ARIZONA

CITY           SKY/WX    TMP DP  RH WIND       PRES   REMARKS
GRAND CANYON   CLOUDY    40  36  86 CALM      29.89F
WILLIAMS       CLOUDY    37  32  81 S7        29.97F WCI  32
PRESCOTT       CLOUDY    50  32  50 SE5       29.86F
FLAGSTAFF      CLOUDY    35  35 100 CALM      29.92F
PAYSON         CLOUDY    43  41  93 CALM      29.92F
PAGE           MOCLDY    53  40  61 NE6       29.82F
$$

AZZ009>014-017-300900-
NORTHEAST ARIZONA

CITY           SKY/WX    TMP DP  RH WIND       PRES   REMARKS
WINSLOW        PTCLDY    45  35  68 SW9       29.87F
SAINT JOHNS    CLOUDY    42  38  85 SE6       29.91F
WINDOW ROCK    MOCLDY    38  32  79 CALM      29.91S
SHOW LOW       MOCLDY    39  36  87 S8        29.95F WCI  34
$$

AZZ023-300900-
GREATER PHOENIX AREA

CITY           SKY/WX    TMP DP  RH WIND       PRES   REMARKS
PHOENIX        PTCLDY    72  34  24 W7        29.74F
BUCKEYE        PTCLDY    64  39  39 S5        29.78S
LUKE AFB       CLEAR     68  38  33 SW10      29.74F
DEER VALLEY    MOCLDY    67  34  29 SW3       29.76F
SCOTTSDALE     PTCLDY    68  35  29 N3        29.78F
MESA-GATEWAY   CLEAR     63  34  34 SW7       29.78F
$$

AZZ027-028-300900-
SOUTHWEST MARICOPA COUNTY AND PINAL COUNTY

CITY           SKY/WX    TMP DP  RH WIND       PRES   REMARKS
CASA GRANDE    CLEAR     61  32  33 CALM      29.80F
GILA BEND      FAIR      69  38  31 W3        29.77R
$$

AZZ503-504-507>509-300900-
SOUTHEAST ARIZONA

CITY           SKY/WX    TMP DP  RH WIND       PRES   REMARKS
TUCSON         CLEAR     61  31  32 E6        29.88S
DAVIS-MONTHAN  CLEAR     59  32  36 SE7       29.86F
NOGALES        CLEAR     49  33  54 E6        29.91F
SIERRA VISTA   CLEAR     53  31  42 SW8       29.94F
DOUGLAS        CLEAR     46  25  43 E5        29.92F
SAFFORD        CLEAR     52  29  41 N3        29.84F
$$

AZZ020-021-025-026-031-300900-
SOUTHWEST ARIZONA

CITY           SKY/WX    TMP DP  RH WIND       PRES   REMARKS
YUMA           CLEAR     66  51  58 S9        29.75F
$$

CAZ031-033-041-043-047-048-061-300900-
SOUTHERN CALIFORNIA

CITY           SKY/WX    TMP DP  RH WIND       PRES   REMARKS
DOWNTOWN L.A.  CLEAR     56  50  80 CALM      29.88F
L.A. AIRPORT   PTCLDY    55  50  83 SE6       29.88F
SAN DIEGO      CLOUDY    61  50  67 SW9       29.93F
BURBANK        CLEAR     56  48  74 SE7       29.86F
ONTARIO        CLOUDY    55  49  80 W8        29.88S
RIVERSIDE      CLOUDY    56  49  77 W6        29.88F
PALM SPRINGS   CLEAR     67  46  47 NW5       29.72F
EL CENTRO NAS  CLEAR    N/A N/A N/A SW18      29.74F
IMPERIAL       CLEAR     68  41  37 W16       29.71F
BLYTHE         CLEAR     67  47  48 S13       29.71F
NEEDLES        PTCLDY    72  38  29 W10       29.67S
$$

NVZ020-UTZ003-300900-
SOUTHERN NEVADA-UTAH

CITY           SKY/WX    TMP DP  RH WIND       PRES   REMARKS
LAS VEGAS      CLOUDY    65  41  41 NE20      29.66F
SALT LAKE CITY MOCLDY    48  40  73 SW7       29.86S
$$

NMZ009-TXZ055-300900-
NEW MEXICO-WEST TEXAS

CITY           SKY/WX    TMP DP  RH WIND       PRES   REMARKS
ALBUQUERQUE    CLOUDY    47  35  63 W10G25    29.90R
EL PASO        PTCLDY    61  27  27 N5        29.86F
$$


........................KEY........................
SKY/WX - SKY CONDITION/WEATHER
TMP    - TEMPERATURE IN FAHRENHEIT
DP     - DEW POINT IN FAHRENHEIT
RH     - RELATIVE HUMIDITY IN PERCENT
WIND   - DIRECTION AND SPEED IN MILES PER HOUR (MPH)
VRB    - VARIABLE WIND DIRECTION
PRES   - MEAN SEA LEVEL PRESSURE IN INCHES OF MERCURY
         F - FALLING PRESSURE   R - RISING PRESSURE
         S - STEADY PRESSURE
VSB    - VISIBILITY IN MILES
HX     - HEAT INDEX IN FAHRENHEIT
WCI    - WIND CHILL INDEX IN FAHRENHEIT
TC     - TEMPERATURE IN CELSIUS WHICH IS ALSO KNOWN AS
         TEMPERATURE IN CENTIGRADE
AFB    - AIR FORCE BASE
         LUKE AFB IS LUKE AIR FORCE BASE
         DAVIS-MONTHAN IS DAVIS-MONTHAN AIR FORCE BASE
NAS    - NAVAL AIR STATION
         EL CENTRO NAS IS EL CENTRO NAVAL AIR STATION
N/A    - NOT AVAILABLE





USA.gov is the U.S. government's official web portal to all federal, state and local government web resources and services.